Location: Grust
(42.8833°N, 0.0333°W)
Time: 14:28:05
(UTC+00:00)

Geosat - Pass Details

Date: 25 October 2020
Orbit: 763 x 766 km, 108.0° (Epoch: 25 November)

Event Time Altitude Azimuth Distance (km) Brightness Sun altitude
Exits shadow 18:40:17 - 28° (NNE) 2,378 6.3 -18.7°
Reaches altitude 10° 18:40:27 10° 28° (NNE) 2,311 6.2 -18.7°
Maximum altitude 18:45:30 82° 116° (ESE) 778 3.9 -19.6°
Drops below altitude 10° 18:50:31 10° 205° (SSW) 2,296 6.7 -20.6°
Sets 18:52:47 0° 206° (SSW) 3,219 7.5 -21.0°
